Regional Weather Roundup
Issued by NWS

Home | Current Version | Previous Version | Graphics & Text | Print | Product List | Glossary On
Versions: 1 2 3 4 5 6 7 8 9 10 11 12 13 14 15 16 17 18 19 20 21 22 23 24 25 26 27 28 29 30 31 32 33 34 35 36 37 38 39 40 41 42 43 44 45 46 47 48 49 50
000
ASUS43 KMKX 021721
RWRWI

WISCONSIN REGIONAL WEATHER ROUNDUP
NATIONAL WEATHER SERVICE MILWAUKEE/SULLIVAN WI
1200 PM CDT THU OCT 02 2014

NOTE: "FAIR" INDICATES FEW OR NO CLOUDS BELOW 12,000 FEET WITH NO
SIGNIFICANT WEATHER AND/OR OBSTRUCTIONS TO VISIBILITY.

WIZ001-002-006>008-014>016-023>028-021800-
NORTHWEST WISCONSIN

CITY           SKY/WX    TMP DP  RH WIND       PRES   REMARKS
SUPERIOR ARPT  CLOUDY    56  53  88 SW5       29.82F
ASHLAND        CLOUDY    57  55  93 CALM      29.83F
HAYWARD        CLOUDY    57  56  96 SW5       29.84S FOG
SIREN          CLOUDY    57  53  87 CALM      29.84S
CUMBERLAND     CLOUDY    55  54  94 CALM      29.83F FOG
RICE LAKE      CLOUDY    58  55  88 CALM      29.85S
CHETEK         CLOUDY    59  56  89 CALM      29.83F
LADYSMITH      CLOUDY    60  56  85 CALM      29.85S
EAU CLAIRE     CLOUDY    64  58  80 CALM      29.81F
MENOMONIE      CLOUDY    61  58  88 E5        29.82F
NEW RICHMOND   CLOUDY    58  57  96 N3        29.83F FOG
OSCEOLA        CLOUDY    58  57  97 CALM      29.85F
$$

WIZ003>005-009-010-017-018-021800-
NORTH CENTRAL WISCONSIN

CITY           SKY/WX    TMP DP  RH WIND       PRES   REMARKS
MANITOWISH WTR CLOUDY    57  57  97 CALM      29.83F FOG
ARBOR VITAE    CLOUDY    57  55  92 E3        29.83F FOG
WOODRUFF       CLOUDY    57  55  92 E3        29.83F FOG
RHINELANDER    CLOUDY    58  54  86 CALM      29.84F
EAGLE RIVER    CLOUDY    57  54  89 CALM      29.83F FOG
LAND O LAKES   CLOUDY    57  55  92 CALM      29.85S FOG
PHILLIPS       CLOUDY    60  55  84 CALM      29.82S
TOMAHAWK       CLOUDY    60  55  82 CALM      29.83F
MEDFORD        MOSUNNY   62  57  83 S6        29.83S HAZE
MERRILL        CLOUDY    62  57  82 CALM      29.83S
$$

WIZ029-030-035-036-043>047-021800-
CENTRAL WISCONSIN

CITY           SKY/WX    TMP DP  RH WIND       PRES   REMARKS
WAUSAU         CLOUDY    63  56  78 CALM      29.81F
MOSINEE        CLOUDY    63  57  82 CALM      29.83F
MARSHFIELD     CLOUDY    65  58  78 CALM      29.82F
STEVENS POINT  CLOUDY    62  57  83 CALM      29.82F
WAUPACA        CLOUDY    68  59  72 CALM      29.82S
WAUTOMA        NOT AVBL
WISC RAPIDS    PTSUNNY   67  59  75 CALM      29.82F
CAMP DOUGLAS   PTSUNNY   68  66  94 E3        29.79F
$$

WIZ011>013-019>022-031-037>040-048>050-021800-
NORTHEAST WISCONSIN

CITY           SKY/WX    TMP DP  RH WIND       PRES   REMARKS
ANTIGO         CLOUDY    60  56  87 CALM      29.83F FOG
SHAWANO        CLOUDY    65  58  78 NE5       29.83S
OCONTO         CLOUDY    62  61  96 SE5       29.83F
STURGEON BAY   NOT AVBL
GREEN BAY      PTSUNNY   67  60  78 VRB3      29.82F
MANITOWOC      NOT AVBL
APPLETON       CLOUDY    64  57  77 VRB6      29.82F HAZE
CLINTONVILLE   CLOUDY    64  57  77 CALM      29.82S
OSHKOSH        CLOUDY    64  60  87 CALM      29.81F FOG
$$

WIZ032>034-041-042-053>061-021800-
SOUTHWEST WISCONSIN

CITY           SKY/WX    TMP DP  RH WIND       PRES   REMARKS
LA CROSSE      CLOUDY    65  60  84 W6        29.79F
SPARTA         PTSUNNY   68  59  73 CALM      29.80F
VIROQUA        PTSUNNY   69  62  80 E5        29.81S
BOSCOBEL       CLOUDY    67  62  84 N6        29.78F HAZE
PRAIRIE DU CHI CLOUDY    67  62  86 CALM      29.78F FOG
PLATTEVILLE    CLOUDY    71  64  77 S5        29.80F
$$

WIZ056-057-062-063-064-067-068-021800-
SOUTH CENTRAL WISCONSIN

CITY           SKY/WX    TMP DP  RH WIND       PRES   REMARKS
REEDSBURG      CLOUDY    66  61  85 CALM      29.79F
BARABOO/DELLS  CLOUDY    66  60  81 E3        29.80F HAZE
LONE ROCK      CLOUDY    71  61  70 E5        29.78F
MINERAL POINT  CLOUDY    72  63  73 CALM      29.79F
MADISON        CLOUDY    67  60  78 SE6       29.80F
MIDDLETON      CLOUDY    68  59  73 CALM      29.82S
WATERTOWN      CLOUDY    65  64  96 S3        29.81F
MONROE         CLOUDY    68  64  88 SW8       29.81S
JANESVILLE     MOSUNNY   73  63  68 SW8       29.81F
$$

WIZ051-052-058>065-066-070>072-021800-
SOUTHEAST WISCONSIN

CITY           SKY/WX    TMP DP  RH WIND       PRES   REMARKS
MILWAUKEE      CLOUDY    72  62  71 SW8       29.81F
WAUKESHA       CLOUDY    68  63  83 S6        29.83F
MILWAUKEE/TIMM MOSUNNY   70  61  73 S8        29.82F
RACINE         PTSUNNY   69  61  75 S15       29.83F
BURLINGTON     PTSUNNY   73  61  67 S8        29.81F
KENOSHA        PTSUNNY   73  63  70 S8        29.82F
FOND DU LAC    CLOUDY    65  59  81 S6        29.82F
SHEBOYGAN      CLOUDY    62  59  90 CALM      29.82F FOG
WEST BEND      CLOUDY    61  59  94 CALM      29.82F FOG
JUNEAU         CLOUDY    65  61  86 CALM      29.82F
$$

LSZ147-162-021800-
LAKE SUPERIOR

STATION/POSITION TIME  TEMP    WIND        PRES    WAVE
                       AIR SEA DIR/SP/G            HT/PER
                 (UTC) (F)     (DEG/KT/KT) (MB)    (FT/S)
W MID LAKE BUOY  1650   52 50  120/  2/  2 1010.2F   1
DEVILS ISLAND    1700   53     240/  3/  4 1010.4F
SAXON HARBOR     1620   56      CALM  /  5 1009.8F
$$

LMZ867-665-643>646-021800-
LAKE MICHIGAN

STATION/POSITION TIME  TEMP    WIND        PRES    WAVE
                       AIR SEA DIR/SP/G            HT/PER
                 (UTC) (F)     (DEG/KT/KT) (MB)    (FT/S)
CHAMBERS ISLAND  1600   60     130/  7/ 12 1010.8F
S GREEN BAY BUOY 1700   61                 1011.1F
N MID LAKE BUOY  1650   58 58  150/ 10/ 12 1011.3F   2/ 5
NORTHPORT PIER   1600   57     150/  6/ 12 1011.2F
KEWAUNEE LAKESHO 1700   57     170/  5/  6 1009.6F
SHEBOYGAN LAKESH 1700   58 56  150/  7/  8 1010.1F
PORT WASHINGTON  1600   60      CALM  /  2 1011.5S
ATWATER BUOY     1700   60     150/  8/ 10 1010.6F
MILWAUKEE LAKESH 1700   61     140/ 11/ 12   N/A
S MID LAKE BUOY  1650   63 62  160/ 12/ 14 1010.4F   2/ 4
KENOSHA   LAKESH 1700   63     170/ 12/ 15 1009.5F
$$

TC  - TEMPERATURE IN CELSIUS
VSB - VISIBILITY IN STATUTE MILES
WCI - WIND CHILL INDEX
HX  - HEAT INDEX




USA.gov is the U.S. government's official web portal to all federal, state and local government web resources and services.